TimeCDT,TemperatureF,Dew PointF,Humidity,Sea Level PressureIn,VisibilityMPH,Wind Direction,Wind SpeedMPH,Gust SpeedMPH,PrecipitationIn,Events,Conditions,WindDirDegrees,DateUTC
12:52 AM,69.1,66.9,93,29.76,6.0,SSW,8.1,-,N/A,,Mostly Cloudy,200,2013-09-20 05:52:00
1:52 AM,69.1,66.0,90,29.78,10.0,SW,11.5,-,N/A,,Mostly Cloudy,230,2013-09-20 06:52:00
2:52 AM,69.1,66.0,90,29.73,10.0,WSW,9.2,-,0.00,Rain,Light Rain,240,2013-09-20 07:52:00
3:52 AM,68.0,64.9,90,29.72,10.0,SW,9.2,-,0.00,,Scattered Clouds,230,2013-09-20 08:52:00
4:48 AM,68.0,64.4,88,29.76,10.0,SW,10.4,-,N/A,,Mostly Cloudy,220,2013-09-20 09:48:00
4:52 AM,68.0,64.9,90,29.75,10.0,SW,10.4,-,N/A,,Mostly Cloudy,220,2013-09-20 09:52:00
5:05 AM,68.0,64.4,88,29.76,10.0,SW,10.4,-,N/A,,Overcast,220,2013-09-20 10:05:00
5:52 AM,68.0,64.9,90,29.76,10.0,SW,8.1,-,N/A,,Overcast,230,2013-09-20 10:52:00
6:52 AM,68.0,64.9,90,29.77,10.0,SW,11.5,-,N/A,,Overcast,230,2013-09-20 11:52:00
7:52 AM,68.0,64.9,90,29.78,6.0,SW,9.2,-,0.00,,Light Drizzle,230,2013-09-20 12:52:00
8:00 AM,68.0,64.4,88,29.79,2.0,SW,8.1,-,0.00,,Light Drizzle,230,2013-09-20 13:00:00
8:22 AM,68.0,64.4,88,29.79,6.0,SW,11.5,-,0.00,,Overcast,220,2013-09-20 13:22:00
8:40 AM,68.0,66.2,94,29.79,5.0,SW,11.5,-,0.00,,Overcast,220,2013-09-20 13:40:00
8:52 AM,68.0,66.0,93,29.79,10.0,SW,12.7,-,0.00,,Overcast,230,2013-09-20 13:52:00
9:52 AM,69.1,66.0,90,29.79,10.0,WSW,13.8,19.6,N/A,,Overcast,240,2013-09-20 14:52:00
10:20 AM,69.8,64.4,83,29.79,10.0,WSW,10.4,-,N/A,,Overcast,240,2013-09-20 15:20:00
10:52 AM,71.1,66.0,84,29.78,10.0,WSW,10.4,-,N/A,,Overcast,250,2013-09-20 15:52:00
11:09 AM,71.6,64.4,78,29.78,10.0,West,10.4,-,N/A,,Overcast,260,2013-09-20 16:09:00
11:38 AM,71.6,64.4,78,29.78,10.0,West,13.8,-,N/A,,Overcast,260,2013-09-20 16:38:00
11:52 AM,73.0,63.0,71,29.77,10.0,West,11.5,20.7,N/A,,Overcast,270,2013-09-20 16:52:00
12:52 PM,73.9,61.0,64,29.75,10.0,WSW,12.7,-,N/A,,Overcast,250,2013-09-20 17:52:00
1:52 PM,75.0,60.1,60,29.75,10.0,WSW,12.7,-,N/A,,Overcast,240,2013-09-20 18:52:00
2:52 PM,73.9,59.0,59,29.74,10.0,WSW,15.0,19.6,N/A,,Overcast,250,2013-09-20 19:52:00
3:52 PM,72.0,55.9,57,29.75,10.0,West,13.8,19.6,N/A,,Overcast,260,2013-09-20 20:52:00
4:52 PM,69.1,57.0,65,29.76,10.0,West,12.7,-,N/A,,Mostly Cloudy,270,2013-09-20 21:52:00
5:52 PM,66.0,53.1,63,29.78,10.0,West,9.2,-,N/A,,Mostly Cloudy,270,2013-09-20 22:52:00
6:52 PM,64.9,52.0,63,29.78,10.0,West,8.1,-,N/A,,Mostly Cloudy,270,2013-09-20 23:52:00
7:52 PM,64.0,53.1,67,29.79,10.0,West,5.8,-,N/A,,Scattered Clouds,260,2013-09-21 00:52:00
8:52 PM,63.0,52.0,67,29.79,10.0,West,8.1,-,N/A,,Scattered Clouds,270,2013-09-21 01:52:00
9:52 PM,62.1,52.0,70,29.79,10.0,WNW,12.7,20.7,N/A,,Scattered Clouds,290,2013-09-21 02:52:00
10:52 PM,61.0,53.1,75,29.79,10.0,WNW,10.4,-,N/A,,Partly Cloudy,300,2013-09-21 03:52:00
11:52 PM,60.1,53.1,78,29.81,10.0,WNW,10.4,-,N/A,,Partly Cloudy,300,2013-09-21 04:52:00